Location: *
(45.9500°N, 9.0833°E)
Time: 15:56:34
(UTC+00:00)

FALCON 9 DEB - Pass Details

Date: 03 March 2021
Orbit: 424 x 435 km, 53.0° (Epoch: 17 April)

Event Time Altitude Azimuth Distance (km) Brightness Sun altitude
Rises 18:17:49 0° 301° (WNW) 2,406 8.1 -12.0°
Reaches altitude 10° 18:19:58 10° 306° (NW) 1,534 6.8 -12.4°
Maximum altitude 18:23:22 56° 26° (NNE) 515 3.3 -13.0°
Enters shadow 18:25:08 25° 96° (E) 912 4.1 -13.3°
